Location: Archemont
(49.1579°N, 1.7598°E)
Time: 10:09:42
(UTC+00:00)

ISS - Pass Details

Date: 05 March 2024
Orbit: 413 x 419 km, 51.6° (Epoch: 13 April)

Event Time Altitude Azimuth Distance (km) Brightness Sun altitude
Exits shadow 04:20:40 55° 140° (SE) 520 -3.3 -21.2°
Drops below altitude 10° 04:23:27 10° 119° (ESE) 1,515 -0.3 -20.8°
Sets 04:25:33 0° 118° (ESE) 2,377 0.8 -20.5°
